When you browse on this site, cookies collect data to enhance your experience and personalize the content and advertising you see.
Visit our Privacy Policy to learn more. By continuing to use the site, you agree to this use of cookies and data.
  • In Sweden
  • List of Countries
  • For 7 days
  • Water Temperature
  • Satellite Maps
  • Weather Map
  • Weather Widgets
  • user-avatar
    Login

    Hourly Weather Sliven

    Today, 21 November, Wednesday

    Time Temperature Precipitation Wind Pressure Humidity
    00:00 +5°C° 1 mm 3 mps 733 mmHg 95%
    01:00 +7°C° 1 mm 2 mps 733 mmHg 96%
    02:00 +7°C° 1 mm 2 mps 732 mmHg 96%
    03:00 +7°C° 1 mm 2 mps 732 mmHg 96%
    04:00 +7°C° 1 mm 2 mps 731 mmHg 96%
    05:00 +8°C° 1 mm 2 mps 731 mmHg 97%
    06:00 +8°C° 1.5 mm 2 mps 730 mmHg 97%
    07:00 +8°C° 1.5 mm 2 mps 730 mmHg 97%
    08:00 +8°C° 1.5 mm 2 mps 730 mmHg 96%
    09:00 +9°C° 1.3 mm 2 mps 730 mmHg 96%
    10:00 +9°C° 1.3 mm 2 mps 729 mmHg 95%
    11:00 +9°C° 1.3 mm 3 mps 729 mmHg 94%
    12:00 +9°C° 1.2 mm 3 mps 729 mmHg 94%
    13:00 +9°C° 1.2 mm 3 mps 729 mmHg 94%
    14:00 +9°C° 1.2 mm 3 mps 729 mmHg 94%
    15:00 +9°C° 1.6 mm 3 mps 729 mmHg 93%
    16:00 +8°C° 1.6 mm 3 mps 729 mmHg 92%
    17:00 +7°C° 1.6 mm 4 mps 729 mmHg 92%
    18:00 +7°C° 1.6 mm 4 mps 730 mmHg 91%
    19:00 +6°C° 1.6 mm 4 mps 730 mmHg 90%
    20:00 +6°C° 1.6 mm 5 mps 730 mmHg 89%
    21:00 +6°C° 0.9 mm 5 mps 731 mmHg 89%
    22:00 +6°C° 0.9 mm 5 mps 731 mmHg 88%
    23:00 +5°C° 0.9 mm 5 mps 732 mmHg 88%

    Tomorrow, 22 November, Thursday

    Time Temperature Precipitation Wind Pressure Humidity
    00:00 +5°C° 0.7 mm 5 mps 732 mmHg 87%
    01:00 +3°C° 0.7 mm 5 mps 732 mmHg 87%
    02:00 +4°C° 0.7 mm 4 mps 732 mmHg 86%
    03:00 +4°C° 0.5 mm 4 mps 733 mmHg 86%
    04:00 +3°C° 0.5 mm 4 mps 733 mmHg 86%
    05:00 +3°C° 0.5 mm 4 mps 733 mmHg 86%
    06:00 +3°C° 0.3 mm 4 mps 734 mmHg 85%
    07:00 +3°C° 0.3 mm 4 mps 734 mmHg 85%
    08:00 +1°C° 0.3 mm 4 mps 735 mmHg 85%
    09:00 +3°C° 0.2 mm 4 mps 735 mmHg 84%
    10:00 +3°C° 0.2 mm 3 mps 735 mmHg 84%
    11:00 +3°C° 0.2 mm 3 mps 736 mmHg 83%
    12:00 +3°C° 0.1 mm 3 mps 736 mmHg 82%
    13:00 +3°C° 0.1 mm 3 mps 736 mmHg 80%
    14:00 +4°C° 0.1 mm 3 mps 736 mmHg 79%
    15:00 +3°C° 0 mm 3 mps 736 mmHg 80%
    16:00 +4°C° 0 mm 2 mps 737 mmHg 82%
    17:00 +4°C° 0 mm 2 mps 737 mmHg 83%
    18:00 +4°C° 0 mm 2 mps 737 mmHg 84%
    19:00 +3°C° 0 mm 2 mps 738 mmHg 85%
    20:00 +3°C° 0 mm 2 mps 738 mmHg 86%
    21:00 +3°C° 0 mm 2 mps 738 mmHg 87%
    22:00 +3°C° 0 mm 1 mps 738 mmHg 87%
    23:00 +3°C° 0 mm 1 mps 738 mmHg 88%

    Day after tomorrow, 23 November, Friday

    Time Temperature Precipitation Wind Pressure Humidity
    00:00 +3°C° 0 mm 1 mps 739 mmHg 88%
    01:00 +3°C° 0 mm 1 mps 739 mmHg 87%
    02:00 +2°C° 0 mm 1 mps 739 mmHg 87%
    03:00 +2°C° 0 mm 1 mps 739 mmHg 86%
    04:00 +2°C° 0 mm 1 mps 739 mmHg 86%
    05:00 +2°C° 0 mm 1 mps 739 mmHg 85%
    06:00 +2°C° 0 mm 1 mps 739 mmHg 83%
    07:00 +2°C° 0 mm 1 mps 740 mmHg 81%
    08:00 +2°C° 0 mm 1 mps 740 mmHg 79%
    09:00 +3°C° 0 mm 1 mps 741 mmHg 70%
    10:00 +4°C° 0 mm 1 mps 741 mmHg 61%
    11:00 +5°C° 0 mm 2 mps 741 mmHg 52%
    12:00 +5°C° 0 mm 2 mps 741 mmHg 50%
    13:00 +6°C° 0 mm 2 mps 741 mmHg 47%
    14:00 +6°C° 0 mm 2 mps 741 mmHg 45%
    15:00 +5°C° 0 mm 2 mps 741 mmHg 50%
    16:00 +4°C° 0 mm 2 mps 741 mmHg 55%
    17:00 +4°C° 0 mm 1 mps 741 mmHg 61%
    18:00 +4°C° 0 mm 1 mps 741 mmHg 62%
    19:00 +3°C° 0 mm 1 mps 741 mmHg 64%
    20:00 +2°C° 0 mm 1 mps 741 mmHg 66%
    21:00 +2°C° 0 mm 1 mps 741 mmHg 66%
    22:00 +2°C° 0 mm 1 mps 741 mmHg 66%
    23:00 +2°C° 0 mm 1 mps 741 mmHg 66%

    24 November, Saturday

    Time Temperature Precipitation Wind Pressure Humidity
    00:00 +2°C° 0 mm 1 mps 741 mmHg 66%
    01:00 +2°C° 0 mm 1 mps 741 mmHg 65%
    02:00 +1°C° 0 mm 1 mps 741 mmHg 65%
    03:00 +1°C° 0 mm 1 mps 741 mmHg 65%
    04:00 0°C° 0 mm 0 mps 740 mmHg 65%
    05:00 0°C° 0 mm 0 mps 740 mmHg 65%
    06:00 0°C° 0 mm 0 mps 740 mmHg 64%
    07:00 0°C° 0 mm 0 mps 740 mmHg 64%
    08:00 +2°C° 0 mm 1 mps 740 mmHg 63%
    09:00 +3°C° 0 mm 1 mps 740 mmHg 59%
    10:00 +5°C° 0 mm 1 mps 740 mmHg 54%
    11:00 +6°C° 0 mm 1 mps 740 mmHg 50%
    12:00 +7°C° 0 mm 1 mps 739 mmHg 50%
    13:00 +8°C° 0 mm 1 mps 739 mmHg 50%
    14:00 +8°C° 0 mm 1 mps 738 mmHg 51%
    15:00 +7°C° 0 mm 1 mps 738 mmHg 57%
    16:00 +6°C° 0 mm 1 mps 738 mmHg 63%
    17:00 +5°C° 0 mm 1 mps 737 mmHg 69%
    18:00 +4°C° 0 mm 1 mps 737 mmHg 72%
    19:00 +4°C° 0 mm 1 mps 737 mmHg 75%
    20:00 +4°C° 0 mm 1 mps 737 mmHg 78%
    21:00 +3°C° 0 mm 1 mps 737 mmHg 79%
    22:00 +3°C° 0 mm 1 mps 737 mmHg 81%
    23:00 +3°C° 0 mm 1 mps 736 mmHg 82%

    25 November, Sunday

    Time Temperature Precipitation Wind Pressure Humidity
    00:00 +3°C° 0 mm 1 mps 736 mmHg 82%
    01:00 +3°C° 0 mm 1 mps 736 mmHg 83%
    02:00 +3°C° 0 mm 1 mps 735 mmHg 83%
    03:00 +3°C° 0 mm 1 mps 735 mmHg 83%
    04:00 +3°C° 0 mm 1 mps 735 mmHg 82%
    05:00 +3°C° 0 mm 1 mps 735 mmHg 82%
    06:00 +3°C° 0 mm 1 mps 734 mmHg 81%
    07:00 +3°C° 0 mm 1 mps 734 mmHg 80%
    08:00 +3°C° 0 mm 1 mps 734 mmHg 79%
    09:00 +5°C° 0 mm 1 mps 734 mmHg 72%
    10:00 +6°C° 0 mm 2 mps 734 mmHg 65%
    11:00 +7°C° 0 mm 2 mps 734 mmHg 59%
    12:00 +8°C° 0 mm 2 mps 733 mmHg 57%
    13:00 +9°C° 0 mm 2 mps 733 mmHg 56%
    14:00 +10°C° 0 mm 2 mps 732 mmHg 54%
    15:00 +9°C° 0 mm 2 mps 732 mmHg 59%
    16:00 +9°C° 0 mm 1 mps 732 mmHg 64%
    17:00 +8°C° 0 mm 1 mps 731 mmHg 69%
    18:00 +7°C° 0 mm 1 mps 731 mmHg 70%
    19:00 +7°C° 0 mm 1 mps 731 mmHg 71%
    20:00 +7°C° 0 mm 1 mps 731 mmHg 72%
    21:00 +6°C° 0 mm 1 mps 731 mmHg 73%
    22:00 +6°C° 0 mm 1 mps 731 mmHg 74%
    23:00 +6°C° 0 mm 1 mps 731 mmHg 75%

    26 November, Monday

    Time Temperature Precipitation Wind Pressure Humidity
    00:00 +6°C° 0 mm 1 mps 730 mmHg 76%
    01:00 +6°C° 0 mm 1 mps 730 mmHg 78%
    02:00 +6°C° 0 mm 1 mps 730 mmHg 79%
    03:00 +6°C° 0 mm 1 mps 730 mmHg 80%
    04:00 +6°C° 0 mm 1 mps 729 mmHg 80%
    05:00 +6°C° 0 mm 1 mps 729 mmHg 81%
    06:00 +6°C° 0.1 mm 1 mps 729 mmHg 83%
    07:00 +7°C° 0.1 mm 1 mps 729 mmHg 84%
    08:00 +7°C° 0.1 mm 1 mps 729 mmHg 86%
    09:00 +7°C° 0.4 mm 1 mps 729 mmHg 86%
    10:00 +8°C° 0.4 mm 1 mps 729 mmHg 85%
    11:00 +7°C° 0.4 mm 0 mps 729 mmHg 85%
    12:00 +9°C° 0.1 mm 1 mps 729 mmHg 82%
    13:00 +10°C° 0.1 mm 1 mps 729 mmHg 79%
    14:00 +11°C° 0.1 mm 1 mps 728 mmHg 75%
    15:00 +10°C° 0 mm 1 mps 728 mmHg 79%
    16:00 +8°C° 0 mm 0 mps 728 mmHg 83%
    17:00 +7°C° 0 mm 0 mps 728 mmHg 87%
    18:00 +7°C° 0 mm 0 mps 728 mmHg 88%
    19:00 +8°C° 0 mm 1 mps 728 mmHg 89%
    20:00 +7°C° 0 mm 1 mps 728 mmHg 90%
    21:00 +7°C° 0 mm 1 mps 728 mmHg 91%
    22:00 +7°C° 0 mm 1 mps 728 mmHg 91%
    23:00 +7°C° 0 mm 1 mps 728 mmHg 91%
    Show more